| time (UTC) | temp F | wind direction | speed MPH | gust MPH | rain 1hr in | rain 24hr in | rain mn in | humidity % | barometer mb |
| 20260831224559 | 77 | 114 | 0.0 | 0.0 | 0.00 | 0.00 | 0.00 | 87 | 1017.5 |
| 20260831224503 | 77 | 114 | 0.0 | 0.0 | 0.00 | 0.00 | 0.00 | 87 | 1017.5 |
| 20260831223030 | 77 | 103 | 0.0 | 0.0 | 0.00 | 0.00 | 0.00 | 87 | 1017.8 |
| 20260831221509 | 77 | 111 | 0.0 | 2.0 | 0.00 | 0.00 | 0.00 | 86 | 1017.9 |
| 20260831220034 | 77 | 95 | 0.0 | 2.0 | 0.00 | 0.00 | 0.00 | 86 | 1018.2 |
| 20260831214554 | 77 | 87 | 0.0 | 3.0 | 0.00 | 0.00 | 0.00 | 86 | 1018.1 |
| 20260831213030 | 77 | 102 | 0.0 | 4.0 | 0.00 | 0.00 | 0.00 | 85 | 1018.1 |
| 20260831211509 | 78 | 124 | 0.0 | 6.0 | 0.00 | 0.00 | 0.00 | 84 | 1017.9 |
| 20260831210033 | 79 | 304 | 0.0 | 3.0 | 0.00 | 0.00 | 0.00 | 83 | 1018.1 |
| 20260831204545 | 78 | 89 | 0.0 | 6.0 | 0.00 | 0.00 | 0.00 | 84 | 1018.0 |
| 20260831203032 | 78 | 120 | 0.0 | 11.0 | 0.00 | 0.00 | 0.00 | 85 | 1017.5 |
| 20260831201514 | 78 | 113 | 2.0 | 7.0 | 0.00 | 0.00 | 0.00 | 84 | 1017.5 |
| 20260831200037 | 79 | 122 | 0.0 | 3.0 | 0.00 | 0.00 | 0.00 | 85 | 1017.4 |
| 20260831194630 | 79 | 116 | 0.0 | 5.0 | 0.00 | 0.00 | 0.00 | 84 | 1017.5 |
| 20260831193033 | 80 | 131 | 0.0 | 6.0 | 0.00 | 0.00 | 0.00 | 83 | 1017.5 |
| 20260831191506 | 80 | 287 | 1.0 | 6.0 | 0.00 | 0.00 | 0.00 | 81 | 1017.6 |
| 20260831190030 | 80 | 124 | 1.0 | 5.0 | 0.00 | 0.00 | 0.00 | 82 | 1017.6 |
| 20260831184510 | 81 | 113 | 1.0 | 6.0 | 0.00 | 0.00 | 0.00 | 81 | 1017.8 |
| 20260831183043 | 81 | 122 | 0.0 | 3.0 | 0.00 | 0.00 | 0.00 | 80 | 1017.8 |
| 20260831181503 | 81 | 125 | 0.0 | 6.0 | 0.00 | 0.00 | 0.00 | 80 | 1017.7 |
| 20260831180025 | 82 | 114 | 0.0 | 1.0 | 0.00 | 0.00 | 0.00 | 80 | 1017.8 |
| 20260831174522 | 82 | 252 | 0.0 | 3.0 | 0.00 | 0.00 | 0.00 | 80 | 1017.8 |
| 20260831173031 | 82 | 128 | 0.0 | 5.0 | 0.00 | 0.00 | 0.00 | 80 | 1017.9 |
| 20260831171553 | 83 | 125 | 1.0 | 4.0 | 0.00 | 0.00 | 0.00 | 78 | 1017.9 |
| 20260831170036 | 84 | 117 | 1.0 | 5.0 | 0.00 | 0.00 | 0.00 | 76 | 1018.1 |
| 20260831164558 | 83 | 282 | 0.0 | 5.0 | 0.00 | 0.00 | 0.00 | 78 | 1018.1 |
| 20260831163016 | 82 | 102 | 0.0 | 3.0 | 0.00 | 0.00 | 0.00 | 78 | 1018.2 |
| 20260831161550 | 82 | 117 | 0.0 | 4.0 | 0.00 | 0.00 | 0.00 | 78 | 1018.5 |
| 20260831160029 | 82 | 105 | 0.0 | 4.0 | 0.00 | 0.00 | 0.00 | 78 | 1018.4 |
| 20260831154514 | 82 | 109 | 1.0 | 6.0 | 0.00 | 0.00 | 0.00 | 77 | 1018.5 |
| 20260831153036 | 82 | 104 | 0.0 | 2.0 | 0.00 | 0.00 | 0.00 | 77 | 1018.6 |
| 20260831151517 | 81 | 118 | 0.0 | 5.0 | 0.00 | 0.00 | 0.00 | 78 | 1018.6 |
| 20260831150037 | 81 | 101 | 0.0 | 4.0 | 0.00 | 0.00 | 0.00 | 78 | 1018.5 |
| 20260831144558 | 81 | 106 | 0.0 | 3.0 | 0.00 | 0.00 | 0.00 | 79 | 1018.5 |
| 20260831144501 | 81 | 299 | 0.0 | 3.0 | 0.00 | 0.00 | 0.00 | 78 | 1018.5 |
| 20260831143110 | 81 | 86 | 0.0 | 4.0 | 0.00 | 0.00 | 0.00 | 78 | 1018.4 |
| 20260831141540 | 80 | 108 | 0.0 | 3.0 | 0.00 | 0.00 | 0.00 | 81 | 1018.5 |
| 20260831140058 | 80 | 130 | 0.0 | 2.0 | 0.00 | 0.00 | 0.00 | 82 | 1018.5 |
| 20260831134539 | 80 | 123 | 0.0 | 5.0 | 0.00 | 0.00 | 0.00 | 85 | 1018.6 |
| 20260831133053 | 79 | 97 | 0.0 | 3.0 | 0.00 | 0.00 | 0.00 | 90 | 1018.5 |
| 20260831131531 | 77 | 316 | 0.0 | 0.0 | 0.00 | 0.00 | 0.00 | 94 | 1018.5 |
| 20260831130054 | 76 | 316 | 0.0 | 0.0 | 0.00 | 0.00 | 0.00 | 94 | 1018.6 |
| 20260831124514 | 76 | 134 | 0.0 | 0.0 | 0.00 | 0.00 | 0.00 | 95 | 1018.5 |
| 20260831123049 | 75 | 209 | 0.0 | 0.0 | 0.00 | 0.00 | 0.00 | 95 | 1018.4 |
| 20260831121511 | 74 | 271 | 0.0 | 0.0 | 0.00 | 0.00 | 0.00 | 95 | 1018.1 |
| 20260831120047 | 74 | 271 | 0.0 | 0.0 | 0.00 | 0.00 | 0.00 | 95 | 1018.3 |
| 20260831114513 | 73 | 271 | 0.0 | 0.0 | 0.00 | 0.00 | 0.00 | 95 | 1018.3 |
| 20260831113042 | 73 | 271 | 0.0 | 0.0 | 0.00 | 0.00 | 0.00 | 95 | 1018.2 |
| 20260831111602 | 73 | 271 | 0.0 | 0.0 | 0.00 | 0.00 | 0.00 | 95 | 1018.1 |
| 20260831111501 | 73 | 271 | 0.0 | 0.0 | 0.00 | 0.00 | 0.00 | 95 | 1018.1 |
| 20260831110034 | 72 | 271 | 0.0 | 0.0 | 0.00 | 0.00 | 0.00 | 95 | 1017.9 |
| 20260831104515 | 72 | 271 | 0.0 | 0.0 | 0.00 | 0.00 | 0.00 | 95 | 1017.8 |
| 20260831103055 | 72 | 271 | 0.0 | 0.0 | 0.00 | 0.00 | 0.00 | 95 | 1017.6 |
| 20260831101511 | 72 | 271 | 0.0 | 0.0 | 0.00 | 0.00 | 0.00 | 95 | 1017.4 |
| 20260831100033 | 72 | 271 | 0.0 | 0.0 | 0.00 | 0.00 | 0.00 | 95 | 1017.2 |
| 20260831094549 | 73 | 271 | 0.0 | 0.0 | 0.00 | 0.00 | 0.00 | 95 | 1017.3 |
| 20260831093035 | 73 | 271 | 0.0 | 0.0 | 0.00 | 0.00 | 0.00 | 95 | 1017.2 |
| 20260831091555 | 73 | 271 | 0.0 | 0.0 | 0.00 | 0.00 | 0.00 | 95 | 1017.2 |
| 20260831090022 | 73 | 271 | 0.0 | 0.0 | 0.00 | 0.00 | 0.00 | 95 | 1017.1 |
| 20260831084541 | 73 | 271 | 0.0 | 0.0 | 0.00 | 0.00 | 0.00 | 95 | 1017.0 |
| 20260831083031 | 73 | 271 | 0.0 | 0.0 | 0.00 | 0.00 | 0.00 | 95 | 1017.0 |
| 20260831081549 | 73 | 271 | 0.0 | 0.0 | 0.00 | 0.00 | 0.00 | 95 | 1017.2 |
| 20260831080012 | 73 | 271 | 0.0 | 0.0 | 0.00 | 0.00 | 0.00 | 95 | 1017.1 |
| 20260831074539 | 73 | 271 | 0.0 | 0.0 | 0.00 | 0.00 | 0.00 | 95 | 1017.2 |
| 20260831073030 | 73 | 271 | 0.0 | 0.0 | 0.00 | 0.00 | 0.00 | 94 | 1017.3 |
| 20260831071509 | 73 | 271 | 0.0 | 0.0 | 0.00 | 0.00 | 0.00 | 94 | 1017.4 |
| 20260831070049 | 73 | 271 | 0.0 | 0.0 | 0.00 | 0.00 | 0.00 | 94 | 1017.5 |
| 20260831064510 | 73 | 271 | 0.0 | 0.0 | 0.00 | 0.00 | 0.00 | 94 | 1017.5 |
| 20260831063033 | 74 | 271 | 0.0 | 0.0 | 0.00 | 0.00 | 0.00 | 94 | 1017.5 |
| 20260831061600 | 74 | 271 | 0.0 | 0.0 | 0.00 | 0.00 | 0.00 | 94 | 1017.6 |
| 20260831060037 | 74 | 271 | 0.0 | 0.0 | 0.00 | 0.00 | 0.00 | 94 | 1017.5 |
| 20260831054558 | 74 | 271 | 0.0 | 0.0 | 0.00 | 0.00 | 0.00 | 94 | 1017.6 |
| 20260831053042 | 74 | 271 | 0.0 | 0.0 | 0.00 | 0.00 | 0.00 | 94 | 1017.5 |
| 20260831051620 | 74 | 271 | 0.0 | 0.0 | 0.00 | 0.00 | 0.00 | 93 | 1017.5 |
| 20260831051502 | 74 | 271 | 0.0 | 0.0 | 0.00 | 0.00 | 0.00 | 93 | 1017.6 |
| 20260831050023 | 74 | 271 | 0.0 | 0.0 | 0.00 | 0.00 | 0.00 | 93 | 1017.5 |
| 20260831044601 | 74 | 271 | 0.0 | 0.0 | 0.00 | 0.00 | 0.00 | 93 | 1017.6 |
| 20260831044503 | 74 | 271 | 0.0 | 0.0 | 0.00 | 0.00 | 0.00 | 93 | 1017.6 |
| 20260831043022 | 74 | 271 | 0.0 | 0.0 | 0.00 | 0.00 | 0.00 | 93 | 1017.7 |
| 20260831041605 | 74 | 271 | 0.0 | 0.0 | 0.00 | 0.00 | 0.00 | 93 | 1017.7 |
| 20260831041507 | 74 | 271 | 0.0 | 0.0 | 0.00 | 0.00 | 0.00 | 93 | 1017.8 |
| 20260831040031 | 74 | 271 | 0.0 | 0.0 | 0.00 | 0.00 | 0.00 | 93 | 1017.7 |
| 20260831034506 | 74 | 271 | 0.0 | 0.0 | 0.00 | 0.00 | 0.00 | 92 | 1017.9 |
| 20260831033047 | 74 | 271 | 0.0 | 0.0 | 0.00 | 0.00 | 0.00 | 92 | 1018.0 |
| 20260831031540 | 74 | 271 | 0.0 | 0.0 | 0.00 | 0.00 | 0.00 | 92 | 1018.1 |
| 20260831030109 | 74 | 271 | 0.0 | 0.0 | 0.00 | 0.00 | 0.00 | 91 | 1018.3 |
| 20260831024536 | 74 | 271 | 0.0 | 0.0 | 0.00 | 0.00 | 0.00 | 91 | 1018.6 |
| 20260831023017 | 75 | 271 | 0.0 | 0.0 | 0.00 | 0.00 | 0.00 | 90 | 1018.5 |
| 20260831021543 | 75 | 271 | 0.0 | 0.0 | 0.00 | 0.00 | 0.00 | 90 | 1018.4 |
| 20260831020012 | 75 | 271 | 0.0 | 0.0 | 0.00 | 0.00 | 0.00 | 89 | 1018.5 |
| 20260831014537 | 76 | 271 | 0.0 | 0.0 | 0.00 | 0.00 | 0.00 | 89 | 1018.6 |
| 20260831013029 | 76 | 271 | 0.0 | 0.0 | 0.00 | 0.00 | 0.00 | 88 | 1018.7 |
| 20260831011545 | 76 | 271 | 0.0 | 0.0 | 0.00 | 0.00 | 0.00 | 88 | 1018.8 |
| 20260831010011 | 76 | 273 | 0.0 | 0.0 | 0.00 | 0.00 | 0.00 | 87 | 1018.7 |
| 20260831004547 | 77 | 273 | 0.0 | 0.0 | 0.00 | 0.00 | 0.00 | 86 | 1018.5 |
| 20260831003016 | 77 | 273 | 0.0 | 0.0 | 0.00 | 0.00 | 0.00 | 86 | 1018.3 |
| 20260831001512 | 77 | 273 | 0.0 | 0.0 | 0.00 | 0.00 | 0.00 | 85 | 1018.5 |
| 20260831000031 | 78 | 273 | 0.0 | 0.0 | 0.00 | 0.00 | 0.00 | 84 | 1018.4 |
| 20260830234512 | 78 | 273 | 0.0 | 0.0 | 0.00 | 0.00 | 0.00 | 83 | 1018.3 |
| 20260830233033 | 79 | 273 | 0.0 | 0.0 | 0.00 | 0.00 | 0.00 | 82 | 1018.4 |
| 20260830231524 | 79 | 273 | 0.0 | 2.0 | 0.00 | 0.00 | 0.00 | 81 | 1018.3 |
| 20260830230043 | 80 | 274 | 0.0 | 1.0 | 0.00 | 0.01 | 0.00 | 80 | 1018.3 |